This is the latest recevied weather packets stored in our database for station/object K7YVO. If no packets are shown the sender has not sent any weather packets the latest 10 day(s).
| Time | Temp. | Humidity | Pressure | Rain* | Wind** | Luminosity | Snow |
|---|---|---|---|---|---|---|---|
| 1777811599 | 11.11° C | 85% | 1014 hPa | 0 mm | - | 0 W/m² | - |
| 1777811299 | 11.11° C | 85% | 1013.9 hPa | 0 mm | - | 0 W/m² | - |
| 1777810997 | 11.11° C | 85% | 1013.9 hPa | 0 mm | - | 0 W/m² | - |
| 1777810694 | 11.11° C | 86% | 1013.9 hPa | 0 mm | - | 0 W/m² | - |
| 1777810390 | 11.11° C | 86% | 1014.2 hPa | 0 mm | - | 0 W/m² | - |
| 1777810086 | 11.67° C | 86% | 1014.2 hPa | 0 mm | - | 0 W/m² | - |
| 1777809784 | 11.67° C | 86% | 1014.2 hPa | 0 mm | - | 0 W/m² | - |
| 1777809481 | 11.67° C | 85% | 1014.2 hPa | 0 mm | - | 0 W/m² | - |
| 1777809179 | 11.67° C | 85% | 1014 hPa | 0 mm | - | 0 W/m² | - |
| 1777808876 | 11.67° C | 83% | 1014 hPa | 0 mm | - | 0 W/m² | - |
| 1777808573 | 12.22° C | 84% | 1014.2 hPa | 0 mm | - | 0 W/m² | - |
| 1777808270 | 12.22° C | 84% | 1014.2 hPa | 0 mm | - | 0 W/m² | - |
| 1777807969 | 12.22° C | 86% | 1014.1 hPa | 0 mm | - | 0 W/m² | - |
| 1777807666 | 12.22° C | 85% | 1014.1 hPa | 0 mm | - | 0 W/m² | - |
| 1777807364 | 12.78° C | 83% | 1014.1 hPa | 0 mm | - | 0 W/m² | - |
| 1777807059 | 12.78° C | 79% | 1014.2 hPa | 0 mm | - | 0 W/m² | - |
| 1777806756 | 12.78° C | 80% | 1014.2 hPa | 0 mm | - | 0 W/m² | - |
| 1777806452 | 12.78° C | 82% | 1014.1 hPa | 0 mm | - | 0 W/m² | - |
| 1777806149 | 12.78° C | 83% | 1014.2 hPa | 0 mm | - | 0 W/m² | - |
| 1777805846 | 13.33° C | 81% | 1014.2 hPa | 0 mm | - | 0 W/m² | - |
| 1777805543 | 12.78° C | 79% | 1014.2 hPa | 0 mm | - | 0 W/m² | - |
| 1777805240 | 12.22° C | 83% | 1014.4 hPa | 0 mm | - | 0 W/m² | - |
| 1777804938 | 12.22° C | 87% | 1014.2 hPa | 0 mm | - | 0 W/m² | - |
| 1777804636 | 12.78° C | 86% | 1014.3 hPa | 0 mm | - | 0 W/m² | - |
| 1777804334 | 12.78° C | 83% | 1014.4 hPa | 0 mm | - | 0 W/m² | - |
* Rain latest hour (hover to see other rain measurements)
** Current wind speed in m/s (hover to see current wind gust speed)